[[{"header":{"parameterUnit":"m.s-1","parameterCategory":1,"la1":30.2991,"la2":30.254,"lo1":-89.0895,"lo2":-89.0444,"dy":0.0017,"dx":0.0017,"nx":28,"ny":28,"refTime":"2023-07-28T09:00:00:Z","depth":0,"parameterNumber":2,"parameterNumberName":"U-component_of_WINDS"},"data":[0,0,0,0,0,0,0,0,0,0,0,0,0,0,0,0,0,0,0,0,0,0,0,0,0,0,0,0,0,0,0,0,0,0,0,0,0,0,0,0,0,0,0,0,0,0,0,0,0,0,0,0,0,0,0,0,0,0,3.1572,3.1573,0,3.1674,3.1675,3.1676,3.1651,3.1649,3.1647,3.1646,3.1749,3.1753,3.1758,0,0,0,0,0,0,0,0,0,0,0,0,0,3.1352,3.1357,3.1571,3.1573,3.1574,3.1674,3.1675,3.1676,3.1652,3.1649,3.1647,3.1645,3.1747,3.1753,3.1758,0,0,0,0,0,0,0,0,0,0,0,0,0,3.145,3.1358,3.1571,3.1574,3.1575,3.1673,3.1675,3.1677,3.1652,3.1649,3.1646,3.1644,3.1746,3.1752,3.1759,3.1861,0,0,3.178,3.1783,0,0,0,0,0,0,0,0,3.1445,3.1458,3.1572,3.1574,3.1575,3.1647,3.1636,3.1738,3.1653,3.1623,3.1646,3.1642,3.1717,3.1726,3.1752,3.1866,3.187,3.1781,3.1785,3.1788,3.179,0,0,0,0,0,0,0,3.1438,3.1454,3.1612,3.1574,3.1576,3.1569,3.158,3.1655,3.1685,3.1625,3.1624,3.1636,3.1718,3.1745,3.1754,3.1871,3.1781,3.1787,3.1791,3.1794,3.2071,3.2074,0,0,0,0,0,0,3.143,3.1448,3.1609,3.1615,3.1502,3.1575,3.1587,3.1627,3.1684,3.169,3.1639,3.1635,3.1735,3.1746,3.1758,3.1879,3.1788,3.1794,3.1798,3.2068,3.2072,3.2075,0,0,0,0,0,0,3.1426,3.1445,3.1604,3.1531,3.1551,3.1582,3.1627,3.163,3.1658,3.1695,3.17,3.1662,3.1733,3.1748,3.1835,3.1882,3.1797,3.1804,3.2064,3.2069,3.2074,3.2122,0,0,0,0,0,0,3.1419,3.1443,3.1483,3.1532,3.1555,3.1681,3.163,3.1635,3.167,3.1666,3.1717,3.1723,3.1732,3.1825,3.1842,3.189,3.1809,3.206,3.2066,3.2072,3.2117,3.2128,3.2138,0,0,0,0,0,3.1412,3.1493,3.1485,3.1505,3.1605,3.1684,3.1697,3.1705,3.1674,3.1714,3.1737,3.1722,3.1874,3.1834,3.1853,3.1904,3.2057,3.2065,3.2072,3.2112,3.2126,3.2138,0,0,0,0,0,0,3.1448,3.1499,3.1491,3.1591,3.1633,3.1679,3.1729,3.1721,3.1772,3.1766,3.1774,3.1786,3.1874,3.1898,3.1852,3.2004,3.1961,3.1972,3.1985,3.1999,3.2009,3.2001,3.1815,0,0,0,0,0,3.1467,3.1527,3.1569,3.1653,3.1674,3.1698,3.1733,3.1736,3.178,3.1797,3.1827,3.1869,3.1927,3.1964,3.2019,3.212,3.213,3.2165,3.2175,3.2184,3.2193,3.2246,3.2261,3.2099,3.2099,3.2099,0,0,3.1508,3.1544,3.1581,3.1661,3.1694,3.1754,3.1713,3.178,3.1825,3.1807,3.189,3.1914,3.1962,3.2055,3.2098,3.2078,3.224,3.2193,3.22,3.2205,3.2255,3.2271,3.2284,3.2104,3.2103,3.2103,0,0,3.1614,3.1647,3.172,3.1754,3.1804,3.1819,3.1837,3.1885,3.1899,3.1983,3.1971,3.2024,3.2123,3.2157,3.2187,3.2304,3.2291,3.2322,3.2378,3.2429,3.2442,3.2453,3.2493,3.2507,3.2331,3.2331,3.2332,0,3.1658,3.175,3.1758,3.1825,3.186,3.1847,3.192,3.1952,3.2018,3.2041,3.2018,3.2141,3.2172,3.2273,3.2301,3.2327,3.2346,3.2315,3.244,3.2451,3.2462,3.2499,3.2515,3.2335,3.2334,3.2334,3.2334,0,3.18,3.1864,3.1917,3.198,3.2021,3.209,3.2108,3.2148,3.2148,3.2165,3.225,3.2287,3.2348,3.2373,3.2373,3.2473,3.2458,3.2437,3.2394,3.248,3.2516,3.253,3.2339,3.2338,3.2337,3.2336,0,0,3.1931,3.1998,3.2017,3.2045,3.2099,3.2148,3.2216,3.2276,3.2309,3.2355,3.2411,3.2495,3.2475,3.251,3.2514,3.2559,3.2647,3.2532,3.2533,3.255,3.2757,3.2771,3.2787,3.2639,3.2642,3.2644,3.2752,0,3.204,3.2161,3.217,3.2278,3.2336,3.2324,3.2383,3.2422,3.244,3.2491,3.2511,3.2569,3.254,3.256,3.2605,3.2627,3.2688,3.2619,3.269,3.2692,3.2676,3.2806,3.2822,3.2922,3.2766,3.2768,3.277,0,3.2183,3.2232,3.2346,3.2391,3.2415,3.2468,3.2523,3.2573,3.2616,3.2626,3.2664,3.2661,3.273,3.2685,3.2779,3.2732,3.2761,3.2776,3.278,3.2786,3.2735,3.2814,3.2954,3.2968,3.2793,3.2791,3.2789,0,3.2264,3.2359,3.2439,3.2464,3.2518,3.2555,3.258,3.262,3.2655,3.2703,3.2725,3.2781,3.2811,3.2853,3.2865,3.2832,3.2958,3.2915,3.2966,3.2966,3.2992,3.299,3.3137,3.3014,3.3014,3.3014,3.3013,0,3.2384,3.2453,3.2476,3.2525,3.2603,3.2612,3.2688,3.271,3.2746,3.2798,3.2792,3.284,3.2854,3.2905,3.2915,3.299,3.3004,3.3012,3.3014,3.3012,3.301,3.303,3.3023,3.3018,3.3017,3.3016,3.3015,0,3.2487,3.2506,3.2592,3.2636,3.2648,3.2703,3.274,3.2787,3.2804,3.2869,3.2885,3.2911,3.2971,3.2987,3.3059,3.3065,3.3153,3.3149,3.3138,3.3137,3.3187,3.3181,3.3351,3.3372,3.3237,3.3238,3.3239,0,3.2561,3.2614,3.2664,3.2698,3.2724,3.278,3.2815,3.2827,3.2863,3.2916,3.2956,3.3014,3.3062,3.3157,3.3182,3.3236,3.3232,3.3288,3.324,3.3236,3.323,3.3226,3.323,3.3296,3.3297,3.3299,3.33,0,3.269,3.2696,3.2748,3.2802,3.2845,3.2888,3.293,3.2958,3.2975,3.3016,3.3077,3.3114,3.3186,3.3244,3.3298,3.3322,3.3313,3.3315,3.3329,3.3327,3.3317,3.3321,3.316,3.331,3.3309,3.3308,3.3308,3.3307,3.278,3.2826,3.2867,3.2924,3.2957,3.2995,3.304,3.3062,3.3113,3.3173,3.3177,3.3242,3.3282,3.3354,3.3381,3.3431,3.3415,3.3436,3.3441,3.3446,3.3449,3.3311,3.3442,3.3441,3.3441,3.3441,3.3441,0,3.2907,3.2933,3.2985,3.3043,3.3087,3.3076,3.3121,3.3158,3.3216,3.3254,3.3301,3.3369,3.3425,3.3454,3.3509,3.3543,3.354,3.3557,3.3554,3.3559,3.3462,3.3443,3.3558,3.3558,3.3558,3.3558,3.3558,3.3558,3.2978,3.3054,3.3065,3.3157,3.3182,3.3246,3.3272,3.3307,3.3337,3.3414,3.346,3.3479,3.3513,3.357,3.362,3.3627,3.3646,3.3665,3.3669,3.3578,3.3566,3.3554,3.3536,3.3669,3.367,3.3761,3.3762,3.3763]},{"header":{"parameterUnit":"m.s-1","parameterCategory":1,"la1":30.2991,"la2":30.254,"lo1":-89.0895,"lo2":-89.0444,"dy":0.0017,"dx":0.0017,"nx":28,"ny":28,"refTime":"2023-07-28T09:00:00:Z","depth":0,"parameterNumber":3,"parameterNumberName":"V-component_of_WINDS"},"data":[0,0,0,0,0,0,0,0,0,0,0,0,0,0,0,0,0,0,0,0,0,0,0,0,0,0,0,0,0,0,0,0,0,0,0,0,0,0,0,0,0,0,0,0,0,0,0,0,0,0,0,0,0,0,0,0,0,0,-0.6604,-0.6604,0,-0.6607,-0.6607,-0.6607,-0.6594,-0.6594,-0.6593,-0.6593,-0.6596,-0.6596,-0.6596,0,0,0,0,0,0,0,0,0,0,0,0,0,-0.6588,-0.6588,-0.6604,-0.6604,-0.6604,-0.6607,-0.6607,-0.6607,-0.6594,-0.6594,-0.6593,-0.6593,-0.6595,-0.6596,-0.6596,0,0,0,0,0,0,0,0,0,0,0,0,0,-0.6593,-0.6588,-0.6604,-0.6598,-0.6598,-0.6607,-0.6607,-0.6607,-0.6594,-0.6594,-0.6593,-0.6593,-0.6595,-0.6596,-0.6597,-0.6612,0,0,-0.6598,-0.6599,0,0,0,0,0,0,0,0,-0.6593,-0.6594,-0.6599,-0.6599,-0.6598,-0.66,-0.6602,-0.6609,-0.6594,-0.6596,-0.6593,-0.6592,-0.6597,-0.6598,-0.66,-0.6612,-0.6612,-0.6599,-0.6599,-0.6599,-0.6599,0,0,0,0,0,0,0,-0.6593,-0.6594,-0.6605,-0.6599,-0.6599,-0.6595,-0.6596,-0.6604,-0.66,-0.6595,-0.6594,-0.6595,-0.6597,-0.6599,-0.66,-0.6612,-0.6599,-0.6599,-0.6599,-0.66,-0.6639,-0.6639,0,0,0,0,0,0,-0.6593,-0.6593,-0.6605,-0.6606,-0.6594,-0.6596,-0.6596,-0.66,-0.66,-0.6599,-0.6596,-0.6594,-0.6598,-0.6599,-0.66,-0.6618,-0.6599,-0.66,-0.66,-0.6638,-0.6639,-0.6639,0,0,0,0,0,0,-0.6593,-0.6594,-0.6605,-0.6599,-0.66,-0.6597,-0.6601,-0.66,-0.6602,-0.66,-0.6599,-0.6598,-0.6598,-0.6599,-0.6609,-0.6618,-0.66,-0.6601,-0.6637,-0.6638,-0.6639,-0.6655,0,0,0,0,0,0,-0.6592,-0.6594,-0.66,-0.6599,-0.6601,-0.6615,-0.6602,-0.6601,-0.6603,-0.6602,-0.6602,-0.6601,-0.6597,-0.6608,-0.661,-0.6618,-0.6601,-0.6636,-0.6638,-0.6639,-0.6654,-0.6656,-0.6659,0,0,0,0,0,-0.6592,-0.6604,-0.66,-0.6602,-0.6608,-0.6615,-0.6616,-0.6611,-0.6604,-0.661,-0.6608,-0.6601,-0.6617,-0.661,-0.6611,-0.662,-0.6636,-0.6637,-0.6639,-0.6652,-0.6656,-0.6659,0,0,0,0,0,0,-0.6605,-0.6604,-0.6599,-0.6612,-0.6614,-0.6613,-0.662,-0.6615,-0.6618,-0.6617,-0.6611,-0.6611,-0.6623,-0.6623,-0.6614,-0.6636,-0.6625,-0.6627,-0.6635,-0.6638,-0.6641,-0.664,-0.6602,0,0,0,0,0,-0.6609,-0.6615,-0.6614,-0.6625,-0.6626,-0.6623,-0.6626,-0.6622,-0.6624,-0.6625,-0.6624,-0.6626,-0.6631,-0.6635,-0.664,-0.6654,-0.6654,-0.6661,-0.6663,-0.6666,-0.6667,-0.6675,-0.6678,-0.6644,-0.6644,-0.6644,0,0,-0.6618,-0.6618,-0.6622,-0.6627,-0.6628,-0.6635,-0.6624,-0.6631,-0.6636,-0.6626,-0.6636,-0.6635,-0.6637,-0.665,-0.6655,-0.665,-0.6677,-0.6667,-0.6669,-0.6669,-0.6677,-0.668,-0.6683,-0.6645,-0.6645,-0.6645,0,0,-0.6637,-0.6638,-0.6647,-0.6649,-0.6651,-0.6649,-0.6652,-0.6652,-0.6651,-0.6662,-0.6654,-0.666,-0.667,-0.6671,-0.6674,-0.6696,-0.6689,-0.6697,-0.671,-0.6718,-0.6721,-0.6723,-0.6731,-0.6734,-0.6699,-0.6699,-0.6699,0,-0.6648,-0.6657,-0.6653,-0.6661,-0.6664,-0.6656,-0.6666,-0.6667,-0.6671,-0.6673,-0.6667,-0.6679,-0.668,-0.6693,-0.6699,-0.6701,-0.6704,-0.6697,-0.6721,-0.6723,-0.6725,-0.6733,-0.6736,-0.67,-0.67,-0.67,-0.67,0,-0.667,-0.6677,-0.6685,-0.6689,-0.6693,-0.6701,-0.6699,-0.6703,-0.67,-0.6699,-0.671,-0.671,-0.6715,-0.6719,-0.6715,-0.6732,-0.6728,-0.6722,-0.6711,-0.673,-0.6737,-0.6739,-0.6701,-0.6701,-0.6701,-0.67,0,0,-0.6696,-0.6699,-0.6702,-0.6704,-0.6706,-0.6712,-0.6721,-0.6726,-0.673,-0.6733,-0.6741,-0.675,-0.6744,-0.6747,-0.6744,-0.6751,-0.6768,-0.6743,-0.6743,-0.6748,-0.6787,-0.6792,-0.6795,-0.6765,-0.6765,-0.6766,-0.6787,0,-0.6715,-0.673,-0.6727,-0.6742,-0.6749,-0.6743,-0.6751,-0.6753,-0.6753,-0.6759,-0.6758,-0.6765,-0.6757,-0.6758,-0.6765,-0.6765,-0.6776,-0.6763,-0.6772,-0.6772,-0.6771,-0.6799,-0.6803,-0.6823,-0.679,-0.679,-0.6791,0,-0.6739,-0.6743,-0.6759,-0.6762,-0.6764,-0.6771,-0.6777,-0.6783,-0.6786,-0.6785,-0.6789,-0.6785,-0.6794,-0.6784,-0.6797,-0.6789,-0.6792,-0.6793,-0.6793,-0.6793,-0.6782,-0.6799,-0.6829,-0.6832,-0.6795,-0.6794,-0.6794,0,-0.6756,-0.6766,-0.6777,-0.6779,-0.6782,-0.6788,-0.6789,-0.6792,-0.6796,-0.6801,-0.6803,-0.6809,-0.6812,-0.6817,-0.6815,-0.6808,-0.6829,-0.6818,-0.6828,-0.6828,-0.6832,-0.6832,-0.6863,-0.6835,-0.6835,-0.6835,-0.6835,0,-0.6777,-0.6787,-0.6785,-0.6792,-0.6803,-0.68,-0.6812,-0.6812,-0.6815,-0.6822,-0.6817,-0.6824,-0.6821,-0.6827,-0.6826,-0.6837,-0.6839,-0.6838,-0.6838,-0.6839,-0.6839,-0.684,-0.6839,-0.6836,-0.6836,-0.6836,-0.6836,0,-0.6798,-0.6797,-0.6809,-0.6811,-0.6812,-0.682,-0.6822,-0.6829,-0.6829,-0.6838,-0.684,-0.684,-0.6847,-0.6846,-0.6854,-0.6853,-0.6868,-0.6865,-0.6867,-0.6866,-0.6876,-0.6875,-0.6909,-0.6913,-0.6883,-0.6883,-0.6884,0,-0.6811,-0.6818,-0.6822,-0.6827,-0.6829,-0.6836,-0.684,-0.6838,-0.6843,-0.6848,-0.6854,-0.6861,-0.6867,-0.688,-0.6881,-0.6887,-0.6885,-0.6896,-0.6886,-0.6887,-0.6885,-0.6884,-0.6885,-0.6898,-0.6899,-0.6899,-0.6899,0,-0.6834,-0.6834,-0.684,-0.6847,-0.6852,-0.6857,-0.6862,-0.6866,-0.6864,-0.687,-0.6878,-0.6882,-0.6892,-0.6899,-0.6906,-0.6907,-0.6903,-0.6903,-0.6905,-0.6906,-0.6906,-0.6906,-0.6872,-0.6902,-0.6901,-0.6901,-0.6901,-0.6901,-0.6852,-0.6858,-0.6862,-0.687,-0.6873,-0.6878,-0.6884,-0.6886,-0.6892,-0.69,-0.6898,-0.6908,-0.6912,-0.692,-0.6923,-0.693,-0.6926,-0.693,-0.6931,-0.6932,-0.6933,-0.6906,-0.6932,-0.6932,-0.6932,-0.6931,-0.6931,0,-0.6875,-0.6877,-0.6884,-0.6891,-0.6897,-0.6894,-0.6899,-0.6904,-0.6913,-0.6917,-0.6923,-0.6933,-0.6941,-0.6942,-0.695,-0.6956,-0.6954,-0.6958,-0.6957,-0.6957,-0.6936,-0.6933,-0.6959,-0.6959,-0.6959,-0.6959,-0.6959,-0.6959,-0.6887,-0.6899,-0.6899,-0.6913,-0.6915,-0.6925,-0.6928,-0.6933,-0.6936,-0.6948,-0.6954,-0.6956,-0.6959,-0.6967,-0.6974,-0.6974,-0.6977,-0.6982,-0.6982,-0.6962,-0.6959,-0.6956,-0.6953,-0.6983,-0.6983,-0.7002,-0.7002,-0.7002]}]]